Regional Weather Roundup
Issued by NWS

Home | Current Version | Previous Version | Text Only | Print | Product List | Glossary Off
Versions: 1 2 3 4 5 6 7 8 9 10 11 12 13 14 15 16 17 18 19 20 21 22 23 24 25 26 27 28 29 30 31 32 33 34 35 36 37 38 39 40 41 42 43 44 45 46 47 48

000
ASUS45 KBOU 190907
RWRCO

WEATHER ROUNDUP FOR COLORADO
NATIONAL WEATHER SERVICE DENVER/BOULDER CO
300 AM MDT FRI SEP 19 2014

NOTE: "FAIR" INDICATES FEW OR NO CLOUDS BELOW 12000 FEET WITH NO
SIGNIFICANT WEATHER AND/OR OBSTRUCTIONS TO VISIBILITY.

COZ001>005-013-030-031-191000-
...NORTHWEST COLORADO...

CITY           SKY/WX    TMP DP  RH WIND       PRES   REMARKS
CRAIG          PTCLDY    45  40  82 CALM      30.07S
HAYDEN         CLEAR     55  37  50 E12       30.09S
MEEKER         CLEAR     51  39  63 E7        30.09S
MOUNT WERNER   NOT AVBL
STEAMBOAT SPGS CLEAR     49  39  67 CALM      30.12S
WALDEN         PTCLDY    45  34  65 SE5       30.18F
$$

COZ006>008-011-191000-
...WEST CENTRAL VALLEYS...

CITY           SKY/WX    TMP DP  RH WIND       PRES   REMARKS
GRAND JUNCTION CLEAR     66  41  40 E12       29.95S
MONTROSE       CLEAR     62  43  49 SE9       30.05S
EAGLE          CLEAR     50  39  66 CALM      30.13F
RIFLE          PTCLDY    54  42  64 CALM      30.03S
DELTA          CLEAR     62  42  47 NE8       30.01S
NUCLA          CLEAR     59  43  55 E9        30.09R
$$

COZ017>023-064>068-191000-
...SOUTHWEST COLORADO...

CITY           SKY/WX    TMP DP  RH WIND       PRES   REMARKS
DURANGO        CLEAR     51  40  65 N5        30.14S
CORTEZ         CLEAR     49  43  80 NE3       30.07R
PAGOSA SPRINGS CLEAR     55  34  45 CALM      30.22S
TELLURIDE      NOT AVBL
WOLF CREEK PAS CLEAR     41  37  87 SW16      30.47F
$$

COZ009-010-012-014-032>034-037-058>063-191000-
...CENTRAL COLORADO...

CITY           SKY/WX    TMP DP  RH WIND       PRES   REMARKS
ASPEN          CLEAR     50  36  58 SW8       30.17F
BUENA VISTA    CLEAR     46  31  56 NW7       30.22F
COPPER MTN     NOT AVBL
BERTHOUD PASS  FAIR      43  41  93 W14       30.52F
COTTONWOOD PAS CLEAR     55  27  33 W8        30.34F
GUNNISON       CLEAR     45  34  65 CALM      30.22F
KREMMLING      PTCLDY    45  37  76 CALM      30.18S
LEADVILLE      CLEAR     40  26  57 NE5       30.34S
MONARCH PASS   CLEAR     46  30  53 S10       30.58F
SALIDA         CLEAR     54  32  43 CALM      30.27S
SUNLIGHT       CLEAR     55  36  47 NW3       30.41S
WILKERSON PASS NOT AVBL
$$

COZ069>075-191000-
...SAN LUIS VALLEY/SANGRE DE CRISTO MOUNTAINS...

CITY           SKY/WX    TMP DP  RH WIND       PRES   REMARKS
ALAMOSA        PTCLDY    45  37  73 E8        30.17F
LA VETA PASS   CLEAR     45  37  76 SW6       30.33F
SAGUACHE       NOT AVBL
$$

COZ035-036-038>040-191000-
...NORTHERN COLORADO FRONT RANGE...

CITY           SKY/WX    TMP DP  RH WIND       PRES   REMARKS
DENVER INTL AP CLEAR     67  35  30 S17       29.96F
DMNS CITY PARK   N/A     71  32  23 S7G15     29.96S
AURORA         CLEAR     63  35  34 S16       29.99F
FRONT RANGE AP NOT AVBL
ERIE MUNI ARPT CLEAR     63  37  38 W3        29.93S
BOULDER MUN AP CLEAR     61  41  48 CALM      29.94S
CENTENNIAL     CLEAR     63  33  32 S7        30.01F
BROOMFIELD     CLEAR     68  37  32 S9        29.97F
FORT COLLINS   CLEAR     57  45  62 N6        29.95R
LONGMONT       CLEAR     53  46  75 CALM      29.95S
$$

COZ041-046-047-076>085-087-088-191000-
...PIKES PEAK/PALMER DIVIDE AND SOUTHERN FOOTHILLS...

CITY           SKY/WX    TMP DP  RH WIND       PRES   REMARKS
COLO. SPRINGS  CLEAR     57  46  66 E7        30.08F
A. F. ACADEMY  CLEAR     47  40  75 N8        30.10F
ELLICOTT       NOT AVBL
FALCON         CLEAR     50  45  81 SW5       30.13F
FORT CARSON    CLEAR     52  46  79 NW5       30.05F
LIMON          CLEAR     57  53  86 SW7       30.02F
MONUMENT HILL  CLEAR     61  36  39 S16G22    30.10S
TRINIDAD       CLEAR     59  53  80 SW12      30.05F
$$

COZ042>045-048>051-090-091-191000-
...NORTHEAST COLORADO...

CITY           SKY/WX    TMP DP  RH WIND       PRES   REMARKS
GREELEY ARPT   CLEAR     55  39  54 CALM      29.92S
AKRON          CLEAR     65  54  67 SW17G26   29.94F
BURLINGTON     CLEAR     63  56  78 SW12      29.96S
WRAY           CLEAR     63  56  80 SW8       29.89S
STERLING       CLEAR     61  55  82 SW8       29.88F
HOLYOKE        CLEAR     61  55  82 SW8       29.89S
FORT MORGAN    CLEAR     58  49  70 S6        29.93S
$$

COZ086-089-092>099-191000-
...SOUTHEAST COLORADO...

CITY           SKY/WX    TMP DP  RH WIND       PRES   REMARKS
PUEBLO         CLEAR     59  50  72 N8        29.98F
LA JUNTA       CLEAR     60  55  83 SE6       29.97F
LAMAR          CLEAR     55  52  89 CALM      29.95F
SPRINGFIELD      N/A     59  59 100 S12       30.02S
$$



USA.gov is the U.S. government's official web portal to all federal, state and local government web resources and services.